Location: Copenhagen
(55.6670°N, 12.5830°E)
Time: 04:58:42
(UTC+02:00)

ACS3 Solar Sail - Pass Details

Date: 23 September 2024
Orbit: 959 x 1034 km, 97.5° (Epoch: 14 October)

Event Time Altitude Azimuth Distance (km) Brightness Sun altitude
Exits shadow 21:01:00 - 164° (SSE) 2,923 3.9 -16.7°
Reaches altitude 10° 21:01:15 10° 164° (SSE) 2,826 3.8 -16.7°
Maximum altitude 21:07:41 88° 255° (WSW) 1,043 1.9 -17.6°
Drops below altitude 10° 21:14:10 10° 346° (NNW) 2,843 4.8 -18.4°
Enters shadow 22:21:50 -49° 180° (S) 10,861 7.1 -26.1°
